N1YZ Weather Reports


time (UTC)temp
C
wind
direction
speed
KPH
gust
KPH
rain 1hr
cm
rain 24hr
cm
rain mn
cm
humidity
%
barometer
mb
20260906174206 34 55 1.6 1.6 0.00 0.00 0.00 58 1031.7
20260906173702 34 16 0.0 0.0 0.00 0.00 0.00 60 1031.9
20260906173157 33 18 0.0 0.0 0.00 0.00 0.00 60 1031.7
20260906172656 33 24 0.0 0.0 0.00 0.00 0.00 61 1031.9
20260906172152 33 51 0.0 1.6 0.00 0.00 0.00 60 1032.0
20260906171652 33 31 0.0 0.0 0.00 0.00 0.00 62 1032.0
20260906171147 32 25 0.0 0.0 0.00 0.00 0.00 65 1032.1
20260906170643 32 14 0.0 0.0 0.00 0.00 0.00 66 1032.0
20260906170143 32 17 0.0 0.0 0.00 0.00 0.00 66 1032.2
20260906165639 32 10 0.0 0.0 0.00 0.00 0.00 63 1032.3
20260906165134 32 27 0.0 0.0 0.00 0.00 0.00 62 1032.5
20260906164633 32 17 0.0 0.0 0.00 0.00 0.00 62 1032.6
20260906164129 32 8 0.0 0.0 0.00 0.00 0.00 62 1032.5
20260906163625 32 43 0.0 0.0 0.00 0.00 0.00 67 1032.4
20260906163120 31 2 0.0 0.0 0.00 0.00 0.00 68 1032.6
20260906162617 31 13 0.0 0.0 0.00 0.00 0.00 66 1032.5
20260906162113 31 29 0.0 0.0 0.00 0.00 0.00 70 1032.6
20260906161613 30 328 0.0 0.0 0.00 0.00 0.00 69 1032.7
20260906161112 30 1 0.0 0.0 0.00 0.00 0.00 72 1032.6
20260906160610 30 23 0.0 0.0 0.00 0.00 0.00 71 1032.8
20260906160110 30 24 0.0 0.0 0.00 0.00 0.00 70 1033.0
20260906155607 30 5 0.0 0.0 0.00 0.00 0.00 71 1032.9
20260906155103 30 10 0.0 0.0 0.00 0.00 0.00 71 1033.0
20260906154559 30 126 0.0 1.6 0.00 0.00 0.00 70 1033.1
20260906154057 30 20 0.0 0.0 0.00 0.00 0.00 72 1032.9
20260906153556 30 232 0.0 1.6 0.00 0.00 0.00 72 1032.9
20260906153051 30 17 0.0 0.0 0.00 0.00 0.00 74 1033.0
20260906152550 29 348 0.0 0.0 0.00 0.00 0.00 74 1033.1
20260906152045 28 14 0.0 0.0 0.00 0.00 0.00 76 1032.9
20260906151540 28 344 0.0 1.6 0.00 0.00 0.00 82 1033.0
20260906151036 28 17 0.0 0.0 0.00 0.00 0.00 81 1032.9
20260906150531 27 177 0.0 0.0 0.00 0.00 0.00 81 1033.0
20260906150026 27 23 0.0 0.0 0.00 0.00 0.00 80 1033.1
20260906145525 27 30 0.0 0.0 0.00 0.00 0.00 83 1032.9
20260906145020 27 356 1.6 3.2 0.00 0.00 0.00 82 1032.8
20260906144514 27 15 0.0 0.0 0.00 0.00 0.00 85 1032.8
20260906144010 27 0 0.0 0.0 0.00 0.00 0.00 84 1032.7
20260906143504 27 0 0.0 0.0 0.00 0.00 0.00 83 1032.7
20260906143001 27 0 0.0 0.0 0.00 0.00 0.00 82 1032.9
20260906142455 28 0 0.0 0.0 0.00 0.00 0.00 80 1033.0
20260906141949 28 359 0.0 0.0 0.00 0.00 0.00 78 1032.7
20260906141443 28 336 0.0 0.0 0.00 0.00 0.00 79 1033.0
20260906140939 28 1 0.0 0.0 0.00 0.00 0.00 82 1032.6
20260906140433 26 1 0.0 0.0 0.00 0.00 0.00 86 1032.5
20260906135931 26 0 0.0 0.0 0.00 0.00 0.00 87 1032.9
20260906135430 26 0 0.0 0.0 0.00 0.00 0.00 87 1032.9
20260906134926 25 10 0.0 0.0 0.00 0.00 0.00 89 1032.9
20260906134421 25 346 0.0 0.0 0.00 0.00 0.00 90 1033.0
20260906133916 25 2 0.0 0.0 0.00 0.00 0.00 90 1033.2
20260906133412 25 2 0.0 0.0 0.00 0.00 0.00 90 1033.1
20260906132907 25 35 0.0 0.0 0.00 0.00 0.00 91 1032.9
20260906132402 25 12 0.0 0.0 0.00 0.00 0.00 91 1033.2
20260906131858 25 12 0.0 0.0 0.00 0.00 0.00 91 1033.2
20260906131353 25 4 0.0 0.0 0.00 0.00 0.00 91 1033.2
20260906130849 25 337 0.0 0.0 0.00 0.00 0.00 92 1033.1
20260906130348 24 359 0.0 0.0 0.00 0.00 0.00 93 1033.0
20260906125847 24 16 0.0 0.0 0.00 0.00 0.00 93 1032.6
20260906125344 24 356 0.0 0.0 0.00 0.00 0.00 93 1032.6
20260906124839 24 357 0.0 0.0 0.00 0.00 0.00 93 1032.4
20260906124336 24 357 0.0 0.0 0.00 0.00 0.00 93 1032.7
20260906123835 24 357 0.0 0.0 0.00 0.00 0.00 93 1032.7
20260906123329 24 1 0.0 0.0 0.00 0.00 0.00 93 1032.8
20260906122829 24 11 0.0 0.0 0.00 0.00 0.00 93 1032.4
20260906122318 24 28 0.0 0.0 0.00 0.00 0.00 92 1032.6
20260906121816 24 28 0.0 0.0 0.00 0.00 0.00 92 1032.2
20260906121311 24 332 0.0 0.0 0.00 0.00 0.00 92 1032.0
20260906120807 24 8 0.0 0.0 0.00 0.00 0.00 92 1032.2
20260906120303 24 9 0.0 0.0 0.00 0.00 0.00 92 1031.8
20260906115759 24 9 0.0 0.0 0.00 0.00 0.00 92 1032.0
20260906115254 24 9 0.0 0.0 0.00 0.00 0.00 92 1032.1
20260906114752 24 9 0.0 0.0 0.00 0.00 0.00 92 1032.1
20260906114243 24 10 0.0 0.0 0.00 0.00 0.00 92 1032.3
20260906113738 24 10 0.0 0.0 0.00 0.00 0.00 92 1031.9
20260906113237 24 10 0.0 0.0 0.00 0.00 0.00 91 1032.3
20260906112737 24 9 0.0 0.0 0.00 0.00 0.00 91 1032.2
20260906112233 24 10 0.0 0.0 0.00 0.00 0.00 91 1032.2
20260906111733 24 9 0.0 0.0 0.00 0.00 0.00 91 1032.3
20260906111227 25 12 0.0 0.0 0.00 0.00 0.00 90 1032.3
20260906110723 25 11 0.0 0.0 0.00 0.00 0.00 90 1032.4
20260906110219 25 13 0.0 1.6 0.00 0.00 0.00 90 1032.6
20260906105717 25 339 0.0 1.6 0.00 0.00 0.00 90 1032.4
20260906105214 25 24 0.0 0.0 0.00 0.00 0.00 90 1032.2
20260906104713 25 24 0.0 0.0 0.00 0.00 0.00 89 1032.5
20260906104213 25 25 0.0 0.0 0.00 0.00 0.00 89 1032.4
20260906103710 25 8 0.0 0.0 0.00 0.00 0.00 88 1032.5
20260906103205 25 30 0.0 0.0 0.00 0.00 0.00 88 1032.5
20260906102701 25 32 0.0 0.0 0.00 0.00 0.00 87 1032.5
20260906102159 25 42 0.0 0.0 0.00 0.00 0.00 87 1032.5
20260906101654 25 26 0.0 0.0 0.00 0.00 0.00 87 1032.5
20260906101149 25 4 0.0 0.0 0.00 0.00 0.00 87 1032.4
20260906100644 25 7 0.0 0.0 0.00 0.00 0.00 88 1032.4
20260906100139 25 7 0.0 0.0 0.00 0.00 0.00 91 1032.6
20260906095634 25 357 0.0 0.0 0.00 0.00 0.00 93 1032.1
20260906095130 25 359 0.0 0.0 0.00 0.00 0.00 94 1031.9
20260906094628 25 3 0.0 0.0 0.00 0.00 0.00 94 1031.6
20260906094125 25 3 0.0 0.0 0.00 0.00 0.00 94 1031.5
20260906093620 25 24 0.0 0.0 0.00 0.00 0.00 95 1031.8
20260906093114 25 24 0.0 0.0 0.00 0.00 0.00 95 1031.8
20260906092609 25 24 0.0 0.0 0.00 0.00 0.00 95 1031.6
20260906092104 25 24 0.0 0.0 0.00 0.00 0.00 95 1031.6
20260906091600 25 6 0.0 0.0 0.00 0.00 0.00 95 1031.7
20260906091056 25 6 0.0 0.0 0.00 0.00 0.00 95 1031.4
20260906090551 25 6 0.0 0.0 0.00 0.00 0.00 95 1031.4
20260906090046 25 6 0.0 0.0 0.00 0.00 0.00 95 1031.5
20260906085545 25 11 0.0 0.0 0.00 0.00 0.00 95 1031.8
20260906085045 25 7 0.0 0.0 0.00 0.00 0.00 95 1031.7
20260906084539 25 7 0.0 0.0 0.00 0.00 0.00 95 1031.7
20260906084038 25 7 0.0 0.0 0.00 0.00 0.00 95 1031.7
20260906083534 25 15 0.0 0.0 0.00 0.00 0.00 96 1031.8
20260906083034 25 16 0.0 0.0 0.00 0.00 0.00 96 1031.9
20260906082529 25 15 0.0 0.0 0.00 0.00 0.00 96 1032.0
20260906082025 25 15 0.0 0.0 0.00 0.00 0.00 95 1031.8
20260906081520 25 15 0.0 0.0 0.00 0.00 0.00 95 1032.0
20260906081016 25 15 0.0 0.0 0.00 0.00 0.00 95 1032.1
20260906080512 25 15 0.0 0.0 0.00 0.00 0.00 95 1032.2
20260906080008 25 15 0.0 0.0 0.00 0.00 0.00 95 1032.3
20260906075502 25 21 0.0 0.0 0.00 0.00 0.00 95 1032.3
20260906074956 25 21 0.0 0.0 0.00 0.00 0.00 95 1032.0
20260906074451 25 21 0.0 0.0 0.00 0.00 0.00 95 1031.7
20260906073949 25 21 0.0 0.0 0.00 0.00 0.00 95 1031.9
20260906073445 25 24 0.0 0.0 0.00 0.00 0.00 95 1031.9
20260906072941 25 24 0.0 0.0 0.00 0.00 0.00 95 1031.6
20260906072436 25 28 0.0 0.0 0.00 0.00 0.00 94 1031.6
20260906071932 25 29 0.0 0.0 0.00 0.00 0.00 95 1031.6
20260906071428 25 27 0.0 0.0 0.00 0.00 0.00 95 1031.9
20260906070924 25 27 0.0 0.0 0.00 0.00 0.00 94 1031.7
20260906070419 25 27 0.0 0.0 0.00 0.00 0.00 94 1031.8
20260906065915 25 27 0.0 0.0 0.00 0.00 0.00 94 1031.8
20260906065409 25 27 0.0 0.0 0.00 0.00 0.00 94 1031.7
20260906064904 25 28 0.0 0.0 0.00 0.00 0.00 94 1031.9
20260906064400 25 28 0.0 0.0 0.00 0.00 0.00 94 1031.9
20260906063855 25 28 0.0 0.0 0.00 0.00 0.00 94 1032.1
20260906063350 25 32 0.0 0.0 0.00 0.00 0.00 94 1032.3
20260906062845 25 32 0.0 0.0 0.00 0.00 0.00 93 1032.2
20260906062344 25 32 0.0 0.0 0.00 0.00 0.00 93 1032.5
20260906061840 25 32 0.0 0.0 0.00 0.00 0.00 93 1032.5
20260906061337 25 56 0.0 0.0 0.00 0.00 0.00 93 1032.4
20260906060831 25 70 0.0 0.0 0.00 0.00 0.00 92 1032.3
20260906060329 25 14 0.0 0.0 0.00 0.00 0.00 93 1032.4
20260906055824 25 2 0.0 0.0 0.00 0.00 0.00 92 1032.3
20260906055320 25 2 0.0 0.0 0.00 0.00 0.00 92 1032.4
20260906054815 25 2 0.0 0.0 0.00 0.00 0.00 92 1032.4
20260906054310 25 2 0.0 0.0 0.00 0.00 0.00 92 1032.5
20260906053807 25 3 0.0 0.0 0.00 0.00 0.00 92 1032.5
20260906053302 25 3 0.0 0.0 0.00 0.00 0.00 92 1032.6
20260906052757 25 3 0.0 0.0 0.00 0.00 0.00 92 1032.5
20260906052253 25 3 0.0 0.0 0.00 0.00 0.00 92 1032.5
20260906051750 25 3 0.0 0.0 0.00 0.00 0.00 92 1032.4
20260906051249 25 2 0.0 0.0 0.00 0.00 0.00 92 1032.5
20260906050745 25 6 0.0 0.0 0.00 0.00 0.00 92 1032.8
20260906050240 25 5 0.0 0.0 0.00 0.00 0.00 92 1033.0
20260906045739 26 21 0.0 0.0 0.00 0.00 0.00 91 1032.8
20260906045233 26 22 0.0 0.0 0.00 0.00 0.00 91 1032.6
20260906044729 26 13 0.0 0.0 0.00 0.00 0.00 91 1032.6
20260906044224 26 356 0.0 0.0 0.00 0.00 0.00 91 1032.2
20260906043720 26 359 0.0 0.0 0.00 0.00 0.00 91 1032.3
20260906043216 26 359 0.0 0.0 0.00 0.00 0.00 91 1032.4
20260906042715 26 0 0.0 0.0 0.00 0.00 0.00 91 1032.3
20260906042209 26 0 0.0 0.0 0.00 0.00 0.00 91 1032.5
20260906041704 26 0 0.0 0.0 0.00 0.00 0.00 90 1032.4
20260906041159 26 0 0.0 0.0 0.00 0.00 0.00 90 1032.3
20260906040655 26 359 0.0 0.0 0.00 0.00 0.00 90 1032.4
20260906040150 26 349 0.0 0.0 0.00 0.00 0.00 91 1032.3
20260906035645 26 358 0.0 0.0 0.00 0.00 0.00 90 1032.6
20260906035141 26 358 0.0 0.0 0.00 0.00 0.00 90 1032.6
20260906034635 26 358 0.0 0.0 0.00 0.00 0.00 89 1032.6
20260906034130 26 358 0.0 0.0 0.00 0.00 0.00 89 1032.6
20260906033626 26 358 0.0 0.0 0.00 0.00 0.00 88 1032.6
20260906033120 26 358 0.0 0.0 0.00 0.00 0.00 88 1032.6
20260906032617 26 0 0.0 0.0 0.00 0.00 0.00 89 1032.4
20260906032116 26 0 0.0 0.0 0.00 0.00 0.00 89 1032.4
20260906031612 26 0 0.0 0.0 0.00 0.00 0.00 89 1032.4
20260906031108 26 0 0.0 0.0 0.00 0.00 0.00 88 1032.5
20260906030606 26 1 0.0 0.0 0.00 0.00 0.00 88 1032.6
20260906025556 26 359 0.0 0.0 0.00 0.00 0.00 88 1032.3
20260906025054 27 359 0.0 0.0 0.00 0.00 0.00 88 1032.5
20260906024549 27 359 0.0 0.0 0.00 0.00 0.00 87 1032.3
20260906024044 27 359 0.0 0.0 0.00 0.00 0.00 87 1032.4
20260906023540 27 359 0.0 0.0 0.00 0.00 0.00 87 1032.5
20260906023034 27 359 0.0 0.0 0.00 0.00 0.00 87 1032.3
20260906022530 27 359 0.0 0.0 0.00 0.00 0.00 87 1032.3
20260906022025 27 359 0.0 0.0 0.00 0.00 0.00 87 1032.4
20260906021520 27 359 0.0 0.0 0.00 0.00 0.00 87 1032.2
20260906021014 27 359 0.0 0.0 0.00 0.00 0.00 86 1032.4
20260906020514 27 359 0.0 0.0 0.00 0.00 0.00 86 1032.4
20260906020014 27 359 0.0 0.0 0.00 0.00 0.00 86 1032.4
20260906015513 27 359 0.0 0.0 0.00 0.00 0.00 86 1032.3
20260906015013 27 1 0.0 0.0 0.00 0.00 0.00 86 1031.9
20260906014508 27 0 0.0 0.0 0.00 0.00 0.00 86 1031.7
20260906014003 27 1 0.0 0.0 0.00 0.00 0.00 85 1031.6
20260906013458 27 1 0.0 0.0 0.00 0.00 0.00 84 1031.6
20260906012954 27 1 0.0 0.0 0.00 0.00 0.00 84 1031.7
20260906012449 28 1 0.0 0.0 0.00 0.00 0.00 84 1031.4
20260906011948 28 3 0.0 0.0 0.00 0.00 0.00 84 1031.6
20260906011444 28 3 1.6 1.6 0.00 0.00 0.00 84 1031.2
20260906010939 28 358 0.0 0.0 0.00 0.00 0.00 84 1030.7
20260906010434 28 2 0.0 0.0 0.00 0.00 0.00 84 1031.0
20260906005930 28 2 0.0 0.0 0.00 0.00 0.00 84 1030.7
20260906005430 28 3 0.0 0.0 0.00 0.00 0.00 83 1031.0
20260906004928 28 10 0.0 0.0 0.00 0.00 0.00 83 1030.9
20260906004423 28 7 0.0 0.0 0.00 0.00 0.00 82 1031.0
20260906003919 28 0 0.0 0.0 0.00 0.00 0.00 82 1031.0
20260906003414 28 8 0.0 0.0 0.00 0.00 0.00 81 1031.2
20260906002909 28 5 0.0 0.0 0.00 0.00 0.00 81 1030.9
20260906002409 29 7 0.0 0.0 0.00 0.00 0.00 80 1031.0
20260906001904 29 7 0.0 0.0 0.00 0.00 0.00 80 1031.1
20260906001400 29 340 0.0 0.0 0.00 0.00 0.00 79 1031.1
20260906000356 29 338 0.0 0.0 0.00 0.00 0.00 79 1031.0
20260905235849 29 12 0.0 0.0 0.00 0.00 0.00 79 1031.2
20260905235343 30 6 0.0 0.0 0.00 0.00 0.00 79 1031.0
20260905234838 30 10 1.6 3.2 0.00 0.00 0.00 78 1031.2
20260905234334 30 347 1.6 1.6 0.00 0.00 0.00 78 1031.0
20260905233829 30 15 0.0 1.6 0.00 0.00 0.00 79 1031.0
20260905233324 30 349 0.0 1.6 0.00 0.00 0.00 78 1031.1
20260905232823 30 356 3.2 4.8 0.00 0.00 0.00 77 1031.1
20260905232319 30 9 0.0 0.0 0.00 0.00 0.00 78 1031.1
20260905231815 30 13 0.0 0.0 0.00 0.00 0.00 77 1030.9
20260905231310 30 19 0.0 0.0 0.00 0.00 0.00 77 1030.9
20260905230806 30 14 0.0 0.0 0.00 0.00 0.00 77 1030.9
20260905230304 31 20 0.0 0.0 0.00 0.00 0.00 77 1031.0
20260905225803 31 337 0.0 0.0 0.00 0.00 0.00 76 1030.9
20260905225259 31 1 1.6 1.6 0.00 0.00 0.00 75 1031.0
20260905224758 31 21 0.0 1.6 0.00 0.00 0.00 74 1031.1
20260905224254 31 35 1.6 3.2 0.00 0.00 0.00 73 1030.9
20260905223749 32 56 1.6 3.2 0.00 0.00 0.00 72 1030.9
20260905223246 32 2 0.0 0.0 0.00 0.00 0.00 71 1030.5
20260905222741 32 31 0.0 0.0 0.00 0.00 0.00 71 1030.8
20260905222240 32 357 1.6 3.2 0.00 0.00 0.00 71 1030.8
20260905221736 32 7 0.0 1.6 0.00 0.00 0.00 71 1030.6
20260905221233 32 25 0.0 0.0 0.00 0.00 0.00 70 1030.8
20260905220729 32 11 0.0 0.0 0.00 0.00 0.00 71 1030.6
20260905220225 32 7 0.0 1.6 0.00 0.00 0.00 70 1030.5
20260905215724 32 3 0.0 0.0 0.00 0.00 0.00 69 1030.5
20260905215220 32 355 1.6 1.6 0.00 0.00 0.00 68 1030.3
20260905214715 33 21 0.0 0.0 0.00 0.00 0.00 67 1030.3
20260905214211 33 12 0.0 0.0 0.00 0.00 0.00 65 1030.3
20260905213706 33 359 0.0 0.0 0.00 0.00 0.00 63 1030.5
20260905213202 33 8 0.0 0.0 0.00 0.00 0.00 61 1030.3
20260905212657 33 2 0.0 0.0 0.00 0.00 0.00 60 1030.5
20260905212156 33 25 0.0 0.0 0.00 0.00 0.00 61 1030.4
20260905211650 34 26 0.0 0.0 0.00 0.00 0.00 59 1030.6
20260905211146 34 3 0.0 0.0 0.00 0.00 0.00 57 1030.5
20260905210642 34 12 0.0 0.0 0.00 0.00 0.00 61 1030.7
20260905210137 35 356 1.6 1.6 0.00 0.00 0.00 59 1030.6
20260905205636 35 2 0.0 0.0 0.00 0.00 0.00 59 1030.8
20260905205131 35 337 4.8 4.8 0.00 0.00 0.00 60 1030.8
20260905204629 35 9 0.0 0.0 0.00 0.00 0.00 59 1030.6
20260905204125 34 83 1.6 1.6 0.00 0.00 0.00 59 1030.5
20260905203625 34 22 0.0 0.0 0.00 0.00 0.00 61 1030.7
20260905203121 34 3 1.6 1.6 0.00 0.00 0.00 62 1030.8
20260905202616 33 7 0.0 0.0 0.00 0.00 0.00 62 1030.7
20260905202111 34 3 0.0 0.0 0.00 0.00 0.00 62 1031.1
20260905201607 34 349 0.0 0.0 0.00 0.00 0.00 59 1031.1
20260905201106 34 353 0.0 0.0 0.00 0.00 0.00 60 1031.1
20260905200602 34 19 0.0 0.0 0.00 0.00 0.00 61 1031.1
20260905200056 34 6 1.6 3.2 0.00 0.00 0.00 62 1031.0
20260905195550 35 7 1.6 3.2 0.00 0.00 0.00 59 1030.8
20260905195046 35 221 0.0 1.6 0.00 0.00 0.00 54 1031.0
20260905194545 35 352 0.0 0.0 0.00 0.00 0.00 50 1031.1
20260905194045 35 57 0.0 0.0 0.00 0.00 0.00 49 1031.0
20260905193540 35 0 0.0 0.0 0.00 0.00 0.00 54 1031.0
20260905193035 35 27 0.0 0.0 0.00 0.00 0.00 51 1031.2
20260905192530 35 139 1.6 1.6 0.00 0.00 0.00 50 1031.5
20260905192027 35 190 3.2 3.2 0.00 0.00 0.00 50 1031.6
20260905191524 35 50 0.0 1.6 0.00 0.00 0.00 50 1031.7
20260905191024 35 33 1.6 1.6 0.00 0.00 0.00 52 1031.8
20260905190522 34 351 0.0 0.0 0.00 0.00 0.00 55 1031.7
20260905190016 34 26 0.0 0.0 0.00 0.00 0.00 57 1031.7
20260905185510 35 338 3.2 3.2 0.00 0.00 0.00 55 1031.6
20260905185009 35 120 1.6 1.6 0.00 0.00 0.00 51 1031.9
20260905184504 35 18 0.0 0.0 0.00 0.00 0.00 52 1032.1
20260905184003 35 6 1.6 1.6 0.00 0.00 0.00 54 1032.1
20260905183503 36 295 0.0 0.0 0.00 0.00 0.00 55 1032.4
20260905182957 35 192 1.6 1.6 0.00 0.00 0.00 51 1032.2
20260905182457 35 61 1.6 1.6 0.00 0.00 0.00 54 1032.4
20260905181952 35 161 1.6 1.6 0.00 0.00 0.00 53 1032.5
20260905181447 35 2 0.0 0.0 0.00 0.00 0.00 53 1032.5
20260905180946 36 193 3.2 4.8 0.00 0.00 0.00 50 1032.5
20260905180441 35 10 0.0 0.0 0.00 0.00 0.00 53 1032.8
20260905175936 35 78 1.6 1.6 0.00 0.00 0.00 51 1032.9
20260905175435 35 29 0.0 0.0 0.00 0.00 0.00 51 1032.7
20260905174931 36 353 1.6 3.2 0.00 0.00 0.00 53 1032.8